Time,TemperatureF,DewpointF,PressureIn,WindDirection,WindDirectionDegrees,WindSpeedMPH,WindSpeedGustMPH,Humidity,HourlyPrecipIn,Conditions,Clouds,dailyrainin,SolarRadiationWatts/m^2,SoftwareType,DateUTC
2013-04-12 00:02:00,75.0,61.0,-100.00,ESE,109,5.0,10.0,61,0.00,,,0.00,0.000000,,2013-04-12 10:02:00,
2013-04-12 00:12:00,75.0,61.0,-100.00,ESE,109,5.0,10.0,61,0.00,,,0.00,0.000000,,2013-04-12 10:12:00,
2013-04-12 00:22:00,75.0,61.0,-100.00,ESE,109,5.0,10.0,61,0.00,,,0.00,0.000000,,2013-04-12 10:22:00,
2013-04-12 00:42:00,75.0,57.0,-100.00,ESE,113,6.0,10.0,54,0.00,,,0.00,0.000000,,2013-04-12 10:42:00,
2013-04-12 00:53:00,75.0,57.0,-100.00,ESE,113,6.0,10.0,54,0.00,,,0.00,0.000000,,2013-04-12 10:53:00,
2013-04-12 01:02:00,75.0,57.0,-100.00,ESE,113,6.0,10.0,54,0.00,,,0.00,0.000000,,2013-04-12 11:02:00,
2013-04-12 01:12:00,75.0,57.0,-100.00,ESE,113,6.0,10.0,54,0.00,,,0.00,0.000000,,2013-04-12 11:12:00,
2013-04-12 01:21:00,75.0,57.0,-100.00,ESE,113,6.0,10.0,54,0.00,,,0.00,0.000000,,2013-04-12 11:21:00,
2013-04-12 01:43:00,74.0,58.0,-100.00,East,88,4.0,8.0,58,0.00,,,0.00,0.000000,,2013-04-12 11:43:00,
2013-04-12 01:52:00,74.0,58.0,-100.00,East,88,4.0,8.0,58,0.00,,,0.00,0.000000,,2013-04-12 11:52:00,
2013-04-12 02:02:00,74.0,58.0,-100.00,East,88,4.0,8.0,58,0.00,,,0.00,0.000000,,2013-04-12 12:02:00,
2013-04-12 02:12:00,74.0,58.0,-100.00,East,88,4.0,8.0,58,0.00,,,0.00,0.000000,,2013-04-12 12:12:00,
2013-04-12 02:21:00,74.0,58.0,-100.00,East,88,4.0,8.0,58,0.00,,,0.00,0.000000,,2013-04-12 12:21:00,
2013-04-12 02:42:00,73.0,60.0,-100.00,ENE,61,2.0,6.0,64,0.00,,,0.00,0.000000,,2013-04-12 12:42:00,
2013-04-12 02:53:00,73.0,60.0,-100.00,ENE,61,2.0,6.0,64,0.00,,,0.00,0.000000,,2013-04-12 12:53:00,
2013-04-12 03:03:00,73.0,60.0,-100.00,ENE,61,2.0,6.0,64,0.00,,,0.00,0.000000,,2013-04-12 13:03:00,
2013-04-12 03:12:00,73.0,60.0,-100.00,ENE,61,2.0,6.0,64,0.00,,,0.00,0.000000,,2013-04-12 13:12:00,
2013-04-12 03:21:00,73.0,60.0,-100.00,ENE,61,2.0,6.0,64,0.00,,,0.00,0.000000,,2013-04-12 13:21:00,
2013-04-12 03:43:00,75.0,62.0,-100.00,WNW,301,3.0,6.0,63,0.00,,,0.00,0.000000,,2013-04-12 13:43:00,
2013-04-12 03:53:00,75.0,62.0,-100.00,WNW,301,3.0,6.0,63,0.00,,,0.00,0.000000,,2013-04-12 13:53:00,
2013-04-12 04:03:00,75.0,62.0,-100.00,WNW,301,3.0,6.0,63,0.00,,,0.00,0.000000,,2013-04-12 14:03:00,
2013-04-12 04:12:00,75.0,62.0,-100.00,WNW,301,3.0,6.0,63,0.00,,,0.00,0.000000,,2013-04-12 14:12:00,
2013-04-12 04:21:00,75.0,62.0,-100.00,WNW,301,3.0,6.0,63,0.00,,,0.00,0.000000,,2013-04-12 14:21:00,
2013-04-12 04:43:00,75.0,64.0,-100.00,NNE,33,2.0,4.0,68,0.00,,,0.00,0.000000,,2013-04-12 14:43:00,
2013-04-12 04:53:00,75.0,64.0,-100.00,NNE,33,2.0,4.0,68,0.00,,,0.00,0.000000,,2013-04-12 14:53:00,
2013-04-12 05:02:00,75.0,64.0,-100.00,NNE,33,2.0,4.0,68,0.00,,,0.00,0.000000,,2013-04-12 15:02:00,
2013-04-12 05:12:00,75.0,64.0,-100.00,NNE,33,2.0,4.0,68,0.00,,,0.00,0.000000,,2013-04-12 15:12:00,
2013-04-12 05:21:00,75.0,64.0,-100.00,NNE,33,2.0,4.0,68,0.00,,,0.00,0.000000,,2013-04-12 15:21:00,
2013-04-12 05:43:00,73.0,61.0,-100.00,ENE,72,4.0,8.0,65,0.00,,,-99.99,0.000000,,2013-04-12 15:43:00,
2013-04-12 05:53:00,73.0,61.0,-100.00,ENE,72,4.0,8.0,65,0.00,,,-99.99,0.000000,,2013-04-12 15:53:00,
2013-04-12 06:03:00,73.0,61.0,-100.00,ENE,72,4.0,8.0,65,0.00,,,-99.99,0.000000,,2013-04-12 16:03:00,
2013-04-12 06:13:00,73.0,61.0,-100.00,ENE,72,4.0,8.0,65,0.00,,,-99.99,0.000000,,2013-04-12 16:13:00,
2013-04-12 06:22:00,73.0,61.0,-100.00,ENE,72,4.0,8.0,65,0.00,,,-99.99,0.000000,,2013-04-12 16:22:00,
2013-04-12 06:43:00,71.0,60.0,-100.00,East,81,4.0,6.0,68,0.00,,,0.00,0.000000,,2013-04-12 16:43:00,
2013-04-12 06:53:00,71.0,60.0,-100.00,East,81,4.0,6.0,68,0.00,,,0.00,0.000000,,2013-04-12 16:53:00,
2013-04-12 07:03:00,71.0,60.0,-100.00,East,81,4.0,6.0,68,0.00,,,0.00,0.000000,,2013-04-12 17:03:00,
2013-04-12 07:12:00,71.0,60.0,-100.00,East,81,4.0,6.0,68,0.00,,,0.00,0.000000,,2013-04-12 17:12:00,
2013-04-12 07:22:00,71.0,60.0,-100.00,East,81,4.0,6.0,68,0.00,,,0.00,0.000000,,2013-04-12 17:22:00,
2013-04-12 07:46:00,72.0,60.0,-100.00,NE,54,3.0,5.0,66,0.00,,,0.00,45.000000,,2013-04-12 17:46:00,
2013-04-12 08:07:00,72.0,60.0,-100.00,NE,54,3.0,5.0,66,0.00,,,0.00,45.000000,,2013-04-12 18:07:00,
2013-04-12 08:14:00,72.0,60.0,-100.00,NE,54,3.0,5.0,66,0.00,,,0.00,45.000000,,2013-04-12 18:14:00,
2013-04-12 08:23:00,72.0,60.0,-100.00,NE,54,3.0,5.0,66,0.00,,,0.00,45.000000,,2013-04-12 18:23:00,
2013-04-12 09:43:00,76.0,64.0,-100.00,WSW,256,2.0,5.0,67,0.00,,,0.00,204.000000,,2013-04-12 19:43:00,
2013-04-12 09:53:00,76.0,64.0,-100.00,WSW,256,2.0,5.0,67,0.00,,,0.00,204.000000,,2013-04-12 19:53:00,
2013-04-12 10:02:00,76.0,64.0,-100.00,WSW,256,2.0,5.0,67,0.00,,,0.00,204.000000,,2013-04-12 20:02:00,
2013-04-12 10:12:00,76.0,64.0,-100.00,WSW,256,2.0,5.0,67,0.00,,,0.00,204.000000,,2013-04-12 20:12:00,
2013-04-12 10:21:00,76.0,64.0,-100.00,WSW,256,2.0,5.0,67,0.00,,,0.00,204.000000,,2013-04-12 20:21:00,
2013-04-12 10:43:00,78.0,63.0,-100.00,West,277,3.0,8.0,60,0.00,,,0.00,650.000000,,2013-04-12 20:43:00,
2013-04-12 10:52:00,78.0,63.0,-100.00,West,277,3.0,8.0,60,0.00,,,0.00,650.000000,,2013-04-12 20:52:00,
2013-04-12 11:02:00,78.0,63.0,-100.00,West,277,3.0,8.0,60,0.00,,,0.00,650.000000,,2013-04-12 21:02:00,
2013-04-12 11:11:00,78.0,63.0,-100.00,West,277,3.0,8.0,60,0.00,,,0.00,650.000000,,2013-04-12 21:11:00,
2013-04-12 11:21:00,78.0,63.0,-100.00,West,277,3.0,8.0,60,0.00,,,0.00,650.000000,,2013-04-12 21:21:00,
2013-04-12 11:43:00,79.0,65.0,-100.00,West,276,7.0,10.0,62,0.00,,,0.00,904.000000,,2013-04-12 21:43:00,
2013-04-12 11:52:00,79.0,65.0,-100.00,West,276,7.0,10.0,62,0.00,,,0.00,904.000000,,2013-04-12 21:52:00,
2013-04-12 12:02:00,79.0,65.0,-100.00,West,276,7.0,10.0,62,0.00,,,0.00,904.000000,,2013-04-12 22:02:00,
2013-04-12 12:12:00,79.0,65.0,-100.00,West,276,7.0,10.0,62,0.00,,,0.00,904.000000,,2013-04-12 22:12:00,
2013-04-12 12:22:00,79.0,65.0,-100.00,West,276,7.0,10.0,62,0.00,,,0.00,904.000000,,2013-04-12 22:22:00,
2013-04-12 12:43:00,79.0,66.0,-100.00,West,279,8.0,12.0,65,0.00,,,0.00,966.000000,,2013-04-12 22:43:00,
2013-04-12 12:52:00,79.0,66.0,-100.00,West,279,8.0,12.0,65,0.00,,,0.00,966.000000,,2013-04-12 22:52:00,
2013-04-12 13:03:00,79.0,66.0,-100.00,West,279,8.0,12.0,65,0.00,,,0.00,966.000000,,2013-04-12 23:03:00,
2013-04-12 13:12:00,79.0,66.0,-100.00,West,279,8.0,12.0,65,0.00,,,0.00,966.000000,,2013-04-12 23:12:00,
2013-04-12 13:21:00,79.0,66.0,-100.00,West,279,8.0,12.0,65,0.00,,,0.00,966.000000,,2013-04-12 23:21:00,
2013-04-12 13:42:00,79.0,66.0,-100.00,West,273,7.0,12.0,64,0.00,,,0.00,788.000000,,2013-04-12 23:42:00,
2013-04-12 13:52:00,79.0,66.0,-100.00,West,273,7.0,12.0,64,0.00,,,0.00,788.000000,,2013-04-12 23:52:00,
2013-04-12 14:02:00,79.0,66.0,-100.00,West,273,7.0,12.0,64,0.00,,,0.00,788.000000,,2013-04-13 00:02:00,
2013-04-12 14:12:00,79.0,66.0,-100.00,West,273,7.0,12.0,64,0.00,,,0.00,788.000000,,2013-04-13 00:12:00,
2013-04-12 14:21:00,79.0,66.0,-100.00,West,273,7.0,12.0,64,0.00,,,0.00,788.000000,,2013-04-13 00:21:00,
2013-04-12 14:42:00,80.0,66.0,-100.00,West,272,6.0,11.0,62,0.00,,,0.00,935.000000,,2013-04-13 00:42:00,
2013-04-12 14:52:00,80.0,66.0,-100.00,West,272,6.0,11.0,62,0.00,,,0.00,935.000000,,2013-04-13 00:52:00,
2013-04-12 15:02:00,80.0,66.0,-100.00,West,272,6.0,11.0,62,0.00,,,0.00,935.000000,,2013-04-13 01:02:00,
2013-04-12 15:12:00,80.0,66.0,-100.00,West,272,6.0,11.0,62,0.00,,,0.00,935.000000,,2013-04-13 01:12:00,
2013-04-12 15:21:00,80.0,66.0,-100.00,West,272,6.0,11.0,62,0.00,,,0.00,935.000000,,2013-04-13 01:21:00,
2013-04-12 15:43:00,79.0,66.0,-100.00,West,275,8.0,11.0,65,0.00,,,0.00,767.000000,,2013-04-13 01:43:00,
2013-04-12 15:52:00,79.0,66.0,-100.00,West,275,8.0,11.0,65,0.00,,,0.00,767.000000,,2013-04-13 01:52:00,
2013-04-12 16:02:00,79.0,66.0,-100.00,West,275,8.0,11.0,65,0.00,,,0.00,767.000000,,2013-04-13 02:02:00,
2013-04-12 16:12:00,79.0,66.0,-100.00,West,275,8.0,11.0,65,0.00,,,0.00,767.000000,,2013-04-13 02:12:00,
2013-04-12 16:22:00,79.0,66.0,-100.00,West,275,8.0,11.0,65,0.00,,,0.00,767.000000,,2013-04-13 02:22:00,
2013-04-12 16:43:00,79.0,64.0,-100.00,West,269,5.0,10.0,60,0.00,,,0.00,437.000000,,2013-04-13 02:43:00,
2013-04-12 16:53:00,79.0,64.0,-100.00,West,269,5.0,10.0,60,0.00,,,0.00,437.000000,,2013-04-13 02:53:00,
2013-04-12 17:02:00,79.0,64.0,-100.00,West,269,5.0,10.0,60,0.00,,,0.00,437.000000,,2013-04-13 03:02:00,
2013-04-12 17:12:00,79.0,64.0,-100.00,West,269,5.0,10.0,60,0.00,,,0.00,437.000000,,2013-04-13 03:12:00,
2013-04-12 17:22:00,79.0,64.0,-100.00,West,269,5.0,10.0,60,0.00,,,0.00,437.000000,,2013-04-13 03:22:00,
2013-04-12 17:43:00,78.0,63.0,-100.00,SW,229,2.0,7.0,60,0.00,,,0.00,275.000000,,2013-04-13 03:43:00,
2013-04-12 17:53:00,78.0,63.0,-100.00,SW,229,2.0,7.0,60,0.00,,,0.00,275.000000,,2013-04-13 03:53:00,
2013-04-12 18:02:00,78.0,63.0,-100.00,SW,229,2.0,7.0,60,0.00,,,0.00,275.000000,,2013-04-13 04:02:00,
2013-04-12 18:12:00,78.0,63.0,-100.00,SW,229,2.0,7.0,60,0.00,,,0.00,275.000000,,2013-04-13 04:12:00,
2013-04-12 18:22:00,78.0,63.0,-100.00,SW,229,2.0,7.0,60,0.00,,,0.00,275.000000,,2013-04-13 04:22:00,
2013-04-12 18:42:00,78.0,65.0,-100.00,SW,235,2.0,6.0,65,0.00,,,0.00,135.000000,,2013-04-13 04:42:00,
2013-04-12 18:53:00,78.0,65.0,-100.00,SW,235,2.0,6.0,65,0.00,,,0.00,135.000000,,2013-04-13 04:53:00,
2013-04-12 19:02:00,78.0,65.0,-100.00,SW,235,2.0,6.0,65,0.00,,,0.00,135.000000,,2013-04-13 05:02:00,
2013-04-12 19:12:00,78.0,65.0,-100.00,SW,235,2.0,6.0,65,0.00,,,0.00,135.000000,,2013-04-13 05:12:00,
2013-04-12 19:22:00,78.0,65.0,-100.00,SW,235,2.0,6.0,65,0.00,,,0.00,135.000000,,2013-04-13 05:22:00,
2013-04-12 19:43:00,76.0,65.0,-100.00,SW,221,3.0,6.0,70,0.00,,,0.00,35.000000,,2013-04-13 05:43:00,
2013-04-12 19:52:00,76.0,65.0,-100.00,SW,221,3.0,6.0,70,0.00,,,0.00,35.000000,,2013-04-13 05:52:00,
2013-04-12 20:02:00,76.0,65.0,-100.00,SW,221,3.0,6.0,70,0.00,,,0.00,35.000000,,2013-04-13 06:02:00,
2013-04-12 20:12:00,76.0,65.0,-100.00,SW,221,3.0,6.0,70,0.00,,,0.00,35.000000,,2013-04-13 06:12:00,
2013-04-12 20:21:00,76.0,65.0,-100.00,SW,221,3.0,6.0,70,0.00,,,0.00,35.000000,,2013-04-13 06:21:00,
2013-04-12 20:49:00,76.0,65.0,-100.00,SW,215,4.0,7.0,70,0.00,,,0.00,0.000000,,2013-04-13 06:49:00,
2013-04-12 20:54:00,76.0,65.0,-100.00,SW,215,4.0,7.0,70,0.00,,,0.00,0.000000,,2013-04-13 06:54:00,
2013-04-12 21:04:00,76.0,65.0,-100.00,SW,215,4.0,7.0,70,0.00,,,0.00,0.000000,,2013-04-13 07:04:00,
2013-04-12 21:13:00,76.0,65.0,-100.00,SW,215,4.0,7.0,70,0.00,,,0.00,0.000000,,2013-04-13 07:13:00,
2013-04-12 21:22:00,76.0,65.0,-100.00,SW,215,4.0,7.0,70,0.00,,,0.00,0.000000,,2013-04-13 07:22:00,
2013-04-12 21:45:00,75.0,65.0,-100.00,SSW,209,3.0,7.0,72,0.00,,,0.00,0.000000,,2013-04-13 07:45:00,
2013-04-12 21:55:00,75.0,65.0,-100.00,SSW,209,3.0,7.0,72,0.00,,,0.00,0.000000,,2013-04-13 07:55:00,
2013-04-12 22:04:00,75.0,65.0,-100.00,SSW,209,3.0,7.0,72,0.00,,,0.00,0.000000,,2013-04-13 08:04:00,
2013-04-12 22:13:00,75.0,65.0,-100.00,SSW,209,3.0,7.0,72,0.00,,,0.00,0.000000,,2013-04-13 08:13:00,
2013-04-12 22:22:00,75.0,65.0,-100.00,SSW,209,3.0,7.0,72,0.00,,,0.00,0.000000,,2013-04-13 08:22:00,
2013-04-12 22:46:00,75.0,65.0,-100.00,SW,227,2.0,7.0,72,0.00,,,0.00,0.000000,,2013-04-13 08:46:00,
2013-04-12 22:54:00,75.0,65.0,-100.00,SW,227,2.0,7.0,72,0.00,,,0.00,0.000000,,2013-04-13 08:54:00,
2013-04-12 23:04:00,75.0,65.0,-100.00,SW,227,2.0,7.0,72,0.00,,,0.00,0.000000,,2013-04-13 09:04:00,
2013-04-12 23:13:00,75.0,65.0,-100.00,SW,227,2.0,7.0,72,0.00,,,0.00,0.000000,,2013-04-13 09:13:00,
2013-04-12 23:22:00,75.0,65.0,-100.00,SW,227,2.0,7.0,72,0.00,,,0.00,0.000000,,2013-04-13 09:22:00,
2013-04-12 23:52:00,75.0,65.0,-100.00,SSW,211,4.0,10.0,71,0.00,,,0.00,0.000000,,2013-04-13 09:52:00,